{"data":{"norad_id":60299,"intl_designator":"2024-132X","name":"STARLINK-32151","alt_names":[],"object_type":"PAYLOAD","status":"ACTIVE","operator":null,"country":"US","launch_date":"2024-07-28","launch_site_code":"AFETR","launch_vehicle":null,"mission":null,"orbit_class":"UNKNOWN","rcs_meters":null,"size_class":null,"mass_kg":null,"dimensions":null,"purposes":["comms"],"wikipedia_slug":null,"has_3d_model":false,"image_url":null,"decayed_at":null,"tle_current":{"epoch":"2026-05-24T22:56:43.965024Z","epoch_age_seconds":72145,"freshness":"FRESH","line1":"1 60299U 24132X   26144.95606441  .00000721  00000+0  36483-4 0  9997","line2":"2 60299  53.1627  29.7352 0001307  84.0885 276.0264 15.30192440103633","mean_motion":15.3019244,"eccentricity":0.0001307,"inclination_deg":53.1627,"raan_deg":29.7352,"arg_perigee_deg":84.0885,"mean_anomaly_deg":276.0264,"bstar":3.6483e-5,"rev_number":10363,"period_min":94.105810639085,"perigee_km":474.34190624381,"apogee_km":476.13337837531,"semimajor_km":6853.3746423096,"source":"CELESTRAK","updated_at":"2026-05-25T13:38:19.226432Z"}}}